User: anonymous   Login
Location: Irma
(52.9170°N, 111.2330°W)
Time: 08:42:51
(UTC-06:00)
Language:

Meteor 1-24 Rocket - Orbit

View from above orbital plane
View from above orbital plane
View from above satellite
View from above satellite

Ground track
Ground track

The orbit data is extracted from the following two-line orbital elements,

1  8800U 76032B   17268.75351524 +.00000041 +00000-0 +15905-4 0  9999
2  8800 081.2490 119.5141 0093008 260.6180 098.4467 14.10098055132150
Epoch (UTC): 25 September 2017 18:05:03
Eccentricity: 0.0093008
inclination: 81.2490°
perigee height: 792 km
apogee height: 926 km
right ascension of ascending node: 119.5141°
argument of perigee: 260.6180°
revolutions per day: 14.10098055
mean anomaly at epoch: 98.4467°
orbit number at epoch: 13215

The dashed part of the orbit path shows where the satellite is in the earth's shadow,  

DLR